Location: Crescent
(42.8242°N, 73.7329°W)
Time: 18:02:27
(UTC+00:00)

Vanguard 1 - Pass Details

Date: 23 February 2026
Orbit: 653 x 3818 km, 34.2° (Epoch: 5 March)

Event Time Altitude Azimuth Distance (km) Brightness Sun altitude
Rises 21:15:47 0° 261° (W) 4,593 15.0 13.2°
Reaches altitude 10° 21:18:18 10° 257° (WSW) 3,915 15.2 12.7°
Maximum altitude 21:29:07 61° 181° (S) 2,731 12.7 11.0°
Drops below altitude 10° 21:48:23 10° 108° (ESE) 6,584 13.8 7.7°
Sets 21:54:11 0° 106° (ESE) 7,832 14.2 6.7°
